Simultaneous Nadir Overpasses (SNOs) Predictions

Prediction of SNOs between AQUA and GOES-15 Satellite Orbit:

Table of predicted SNOs for the next 14.0 days since TLE Epoch: 6/11/2022
Index Date Time (AQUA) AQUA Lat,Lon GOES-15 Lat,Lon Distance(km) Time Diff (sec)
1 06/11/2022 22:05:05 0.36,-126.69 0.02,-128.29 182.47 80
2 06/12/2022 10:26:15 0.68,-131.83 -0.05,-128.31 399.64 80
3 06/14/2022 10:13:43 0.04,-128.78 -0.05,-128.34 49.16 80
4 06/16/2022 10:01:10 -0.61,-125.72 -0.05,-128.37 300.75 80
5 06/16/2022 22:22:28 -0.46,-130.89 0.07,-128.36 287.71 80
6 06/18/2022 22:09:55 0.21,-127.84 0.07,-128.39 62.30 80
7 06/20/2022 21:57:21 0.82,-124.78 0.06,-128.41 412.43 80
8 06/21/2022 10:18:32 0.21,-129.93 -0.08,-128.43 169.45 80
9 06/23/2022 10:05:58 -0.42,-126.87 -0.08,-128.45 180.45 80
10 06/23/2022 22:27:17 -0.63,-132.04 0.11,-128.44 408.73 80
